Location: Bou Ouachlou
(32.7770°N, 5.6009°W)
Time: 10:14:20
(UTC+00:00)

CZ-2D R/B - Pass Details

Date: 07 June 2020
Orbit: 554 x 638 km, 97.9° (Epoch: 04 July)

Event Time Altitude Azimuth Distance (km) Brightness Sun altitude
Rises 03:02:12 0° 18° (NNE) 2,871 8.1 -22.5°
Reaches altitude 10° 03:04:25 10° 23° (NNE) 1,976 7.2 -22.2°
Maximum altitude 03:08:37 52° 100° (E) 779 4.2 -21.6°
Enters shadow 03:10:14 33° 157° (SSE) 1,049 4.5 -21.4°
